QPF
0.00 0.00 0.00 0.00 0.00 0.00 0.00 0.00 0.00 0.00 0.00 0.00 0.00 0.00 0.00 0.00 0.00 0.00 0.00 0.00 0.00 0.00 0.00 0.00 0.00 0.00 0.00 0.00 0.00 0.00 0.00 0.00 0.00 0.00 0.00 0.00 0.00 0.00 0.00 0.00 0.00 0.00 0.00 0.00
0.00 0.00 0.00 0.00 0.00 0.00 0.00 0.00 0.00 0.00 0.00 0.00 0.00 0.00 0.00 0.00 0.00 0.00 0.00 0.00 0.00 0.00 0.00 0.00 0.00 0.00 0.00 0.00 0.00 0.00 0.00 0.00 0.00 0.00 0.00 0.00 0.00 0.00 0.00 0.00 0.00 0.00 0.00 0.00
0.00 0.00 0.00 0.00 0.00 0.00 0.00 0.00 0.00 0.00 0.00 0.00 0.00 0.00 0.00 0.00 0.00 0.00 0.00 0.00 0.00 0.00 0.00 0.00 0.00 0.00 0.00 0.00 0.00 0.00 0.00 0.00 0.00 0.00 0.00 0.00 0.00 0.00 0.00 0.00 0.00 0.00 0.00 0.00
0.00 0.00 0.00 0.00 0.00 0.00 0.00 0.00 0.00 0.00 0.00 0.00 0.00 0.00 0.00 0.00 0.00 0.00 0.00 0.00 0.00 0.00 0.00 0.00 0.00 0.00 0.00 0.00 0.00 0.00 0.00 0.00 0.00 0.00 0.00 0.00 0.00 0.00 0.00 0.00 0.00 0.00 0.00 0.00
0.00 0.00 0.00 0.00 0.00 0.00 0.00 0.00 0.00 0.00 0.00 0.00 0.00 0.00 0.00 0.00 0.00 0.00 0.00 0.00 0.00 0.00 0.00 0.00 0.00 0.00 0.00 0.00 0.00 0.00 0.00 0.00 0.00 0.00 0.00 0.00 0.00 0.00 0.00 0.00 0.00 0.00 0.00 0.00
0.00 0.00 0.00 0.00 0.00 0.00 0.00 0.00 0.00 0.00 0.00 0.00 0.00 0.00 0.00 0.00 0.00 0.00 0.00 0.00 0.00 0.00 0.00 0.00 0.00 0.00 0.00 0.00 0.00 0.00 0.00 0.00 0.00 0.00 0.00 0.00 0.00 0.00 0.00 0.00 0.00 0.00 0.00 0.00
0.00 0.00 0.00 0.00 0.00 0.00 0.00 0.00 0.00 0.00 0.00 0.00 0.00 0.00 0.00 0.00 0.00 0.00 0.00 0.00 0.00 0.00 0.00 0.00 0.00 0.00 0.00 0.00 0.00 0.00 0.00 0.00 0.00 0.00 0.00 0.00 0.00 0.00 0.00 0.00 0.00 0.00 0.00 0.00
0.00 0.00 0.00 0.00 0.00 0.00 0.00 0.00 0.00 0.00 0.00 0.00 0.00 0.00 0.00 0.00 0.00 0.00 0.00 0.00 0.00 0.00 0.00 0.00 0.00 0.00 0.00 0.00 0.00 0.00 0.00 0.00 0.00 0.00 0.00 0.00 0.00 0.00 0.00 0.00 0.00 0.00 0.00 0.00
0.00 0.00 0.00 0.00 0.00 0.00 0.00 0.00 0.00 0.00 0.00 0.00 0.00 0.00 0.00 0.00 0.00 0.00 0.00 0.00 0.00 0.00 0.00 0.00 0.00 0.00 0.00 0.00 0.00 0.00 0.00 0.00 0.00 0.00 0.00 0.00 0.00 0.00 0.00 0.00 0.00 0.00 0.00 0.00
0.00 0.00 0.00 0.00 0.00 0.00 0.00 0.00 0.00 0.00 0.00 0.00 0.00 0.00 0.00 0.00 0.00 0.00 0.00 0.00 0.00 0.00 0.00 0.00 0.00 0.00 0.00 0.00 0.00 0.00 0.00 0.00 0.00 0.00 0.00 0.00 0.00 0.00 0.00 0.00 0.00 0.00 0.00 0.00
0.00 0.00 0.00 0.00 0.00 0.00 0.00 0.00 0.00 0.00 0.00 0.00 0.00 0.00 0.00 0.00 0.00 0.00 0.00 0.00 0.00 0.00 0.00 0.00 0.00 0.00 0.00 0.00 0.00 0.00 0.00 0.00 0.00 0.00 0.00 0.00 0.00 0.00 0.00 0.00 0.00 0.00 0.00 0.00
0.00 0.00 0.00 0.00 0.00 0.00 0.00 0.00 0.00 0.00 0.00 0.00 0.00 0.00 0.00 0.00 0.00 0.00 0.00 0.00 0.00 0.00 0.00 0.00 0.00 0.00 0.00 0.00 0.00 0.00 0.00 0.00 0.00 0.00 0.00 0.00 0.00 0.00 0.00 0.00 0.00 0.00 0.00 0.00
0.00 0.00 0.00 0.00 0.00 0.00 0.00 0.00 0.00 0.00 0.00 0.00 0.00 0.00 0.00 0.00 0.00 0.00 0.00 0.00 0.00 0.00 0.00 0.00 0.00 0.00 0.00 0.00 0.00 0.00 0.00 0.00 0.00 0.00 0.00 0.00 0.00 0.00 0.00 0.00 0.00 0.00 0.00 0.00
0.00 0.01 0.02 0.02 0.01 0.00 0.00 0.00 0.00 0.00 0.00 0.00 0.00 0.00 0.00 0.00 0.00 0.00 0.00 0.00 0.00 0.00 0.00 0.00 0.00 0.00 0.00 0.00 0.00 0.00 0.00 0.00 0.00 0.00 0.00 0.00 0.00 0.00 0.00 0.00 0.00 0.00 0.00 0.00
0.00 0.00 0.01 0.04 0.06 0.06 0.04 0.01 0.00 0.00 0.00 0.00 0.00 0.00 0.00 0.00 0.00 0.00 0.00 0.00 0.00 0.00 0.00 0.00 0.00 0.00 0.00 0.00 0.00 0.00 0.00 0.00 0.00 0.00 0.00 0.00 0.00 0.00 0.00 0.00 0.00 0.00 0.00 0.00
0.00 0.00 0.00 0.02 0.11 0.18 0.12 0.15 0.02 0.00 0.00 0.00 0.00 0.00 0.00 0.00 0.00 0.00 0.00 0.00 0.00 0.00 0.00 0.00 0.00 0.00 0.00 0.00 0.00 0.00 0.00 0.00 0.00 0.00 0.00 0.00 0.00 0.00 0.00 0.00 0.00 0.00 0.00 0.00
0.00 0.01 0.01 0.02 0.08 0.15 0.26 0.24 0.02 0.00 0.01 0.06 0.07 0.00 0.00 0.00 0.00 0.00 0.00 0.00 0.00 0.00 0.00 0.00 0.00 0.00 0.00 0.00 0.00 0.00 0.00 0.00 0.00 0.00 0.00 0.00 0.00 0.00 0.00 0.00 0.00 0.00 0.00 0.00
0.04 0.03 0.04 0.08 0.08 0.04 0.12 0.17 0.11 0.05 0.11 0.22 0.20 0.03 0.00 0.00 0.00 0.00 0.00 0.00 0.00 0.00 0.00 0.00 0.00 0.00 0.00 0.00 0.00 0.00 0.00 0.00 0.00 0.00 0.00 0.00 0.00 0.00 0.00 0.00 0.00 0.00 0.00 0.00
0.07 0.10 0.07 0.04 0.04 0.03 0.03 0.16 0.24 0.17 0.20 0.24 0.09 0.01 0.00 0.00 0.00 0.00 0.00 0.00 0.00 0.00 0.00 0.00 0.00 0.00 0.00 0.00 0.00 0.00 0.00 0.00 0.00 0.00 0.00 0.00 0.00 0.00 0.00 0.00 0.00 0.00 0.00 0.00
0.08 0.09 0.12 0.09 0.06 0.07 0.07 0.13 0.18 0.20 0.20 0.17 0.05 0.00 0.00 0.00 0.00 0.01 0.03 0.05 0.05 0.05 0.01 0.00 0.00 0.00 0.00 0.00 0.00 0.00 0.00 0.00 0.00 0.00 0.00 0.00 0.00 0.00 0.00 0.00 0.00 0.00 0.00 0.00
0.06 0.08 0.07 0.09 0.15 0.09 0.06 0.06 0.08 0.08 0.05 0.03 0.01 0.00 0.00 0.02 0.07 0.08 0.09 0.10 0.06 0.04 0.01 0.01 0.01 0.00 0.00 0.00 0.00 0.00 0.00 0.00 0.00 0.00 0.00 0.00 0.00 0.00 0.00 0.00 0.00 0.00 0.00 0.00
0.08 0.06 0.08 0.13 0.16 0.08 0.06 0.05 0.03 0.01 0.00 0.00 0.01 0.00 0.01 0.04 0.05 0.07 0.07 0.04 0.03 0.02 0.00 0.01 0.00 0.00 0.00 0.00 0.00 0.00 0.00 0.00 0.00 0.00 0.00 0.00 0.00 0.00 0.00 0.00 0.00 0.00 0.00 0.00
0.05 0.02 0.05 0.05 0.05 0.05 0.05 0.03 0.01 0.00 0.00 0.00 0.00 0.01 0.01 0.01 0.01 0.03 0.02 0.02 0.02 0.00 0.00 0.00 0.00 0.00 0.00 0.00 0.00 0.00 0.00 0.00 0.00 0.00 0.00 0.00 0.00 0.00 0.00 0.00 0.00 0.00 0.00 0.00
0.02 0.01 0.02 0.01 0.01 0.00 0.00 0.00 0.00 0.00 0.00 0.00 0.00 0.00 0.00 0.00 0.00 0.01 0.01 0.01 0.00 0.01 0.00 0.00 0.00 0.00 0.00 0.00 0.00 0.00 0.00 0.00 0.00 0.00 0.00 0.00 0.00 0.00 0.00 0.00 0.00 0.00 0.00 0.00
0.00 0.00 0.00 0.00 0.00 0.00 0.00 0.00 0.00 0.00 0.00 0.00 0.00 0.00 0.00 0.00 0.01 0.00 0.01 0.02 0.01 0.00 0.00 0.00 0.00 0.00 0.00 0.00 0.00 0.00 0.00 0.00 0.00 0.00 0.00 0.00 0.00 0.00 0.00 0.00 0.00 0.00 0.00 0.00
0.00 0.00 0.00 0.00 0.00 0.00 0.00 0.00 0.00 0.00 0.00 0.01 0.00 0.00 0.00 0.00 0.01 0.01 0.01 0.00 0.00 0.00 0.00 0.00 0.00 0.00 0.00 0.00 0.00 0.00 0.00 0.00 0.00 0.00 0.00 0.00 0.00 0.00 0.00 0.00 0.00 0.00 0.00 0.00
0.00 0.00 0.00 0.00 0.00 0.00 0.00 0.00 0.00 0.00 0.01 0.00 0.00 0.00 0.00 0.00 0.00 0.00 0.00 0.00 0.00 0.00 0.00 0.00 0.00 0.00 0.00 0.00 0.00 0.00 0.00 0.00 0.00 0.00 0.00 0.00 0.00 0.00 0.00 0.00 0.00 0.00 0.00 0.00
MSLP
1021.89 1021.31 1020.70 1020.12 1019.46 1018.61 1018.21 1017.06 1016.65 1016.99 1016.85 1016.32 1016.06 1016.61 1017.39 1018.29 1018.08 1017.98 1017.52 1017.16 1016.83 1016.46 1016.33 1016.20 1016.73 1017.00 1017.41 1017.99 1017.99 1017.22 1017.42 1016.83 1017.28 1017.51 1018.00 1018.16 1017.60 1016.66 1016.00 1015.42 1015.21 1015.03 1014.88 1014.52
1021.96 1021.45 1020.92 1020.21 1019.75 1019.12 1018.41 1016.79 1016.20 1016.64 1016.59 1015.88 1016.30 1017.45 1017.59 1017.96 1018.03 1018.07 1017.71 1017.31 1017.21 1016.98 1016.74 1016.89 1016.88 1017.47 1018.11 1018.33 1018.03 1017.70 1017.46 1016.96 1017.06 1017.41 1018.02 1018.00 1017.43 1016.79 1016.42 1016.09 1015.78 1014.92 1014.77 1014.49
1022.00 1021.57 1021.08 1020.38 1019.75 1019.40 1018.93 1017.44 1016.39 1015.94 1016.06 1016.35 1015.75 1016.42 1017.18 1017.71 1018.21 1018.02 1018.13 1017.84 1017.64 1017.30 1017.00 1017.13 1017.10 1017.70 1018.22 1018.41 1018.14 1018.29 1017.93 1016.87 1016.66 1016.76 1016.76 1016.62 1016.89 1016.67 1016.59 1016.18 1015.69 1014.36 1014.04 1014.11
1022.03 1021.70 1021.26 1020.64 1019.95 1019.38 1019.19 1017.87 1017.33 1017.51 1016.08 1016.11 1016.26 1016.41 1016.79 1017.17 1017.70 1017.96 1017.86 1017.65 1017.74 1017.56 1017.18 1017.13 1017.14 1017.90 1018.20 1018.41 1018.39 1017.97 1017.68 1017.11 1016.85 1016.49 1016.66 1016.85 1016.72 1016.47 1016.49 1016.07 1014.98 1014.11 1013.37 1013.46
1022.16 1021.84 1021.48 1020.91 1020.01 1019.41 1018.81 1018.51 1018.20 1018.12 1017.11 1016.78 1016.07 1016.59 1016.82 1016.89 1017.39 1017.62 1017.64 1017.47 1017.22 1017.41 1017.42 1017.50 1017.30 1017.48 1017.97 1017.94 1018.51 1018.10 1017.75 1016.96 1017.03 1016.67 1016.72 1016.70 1016.45 1016.18 1015.98 1015.63 1015.21 1014.50 1013.92 1013.42
1022.13 1021.94 1021.62 1021.15 1020.50 1019.46 1018.92 1019.35 1019.03 1018.47 1017.62 1016.94 1016.56 1015.88 1016.28 1016.83 1017.36 1017.93 1017.69 1017.65 1017.64 1017.90 1017.59 1017.72 1017.86 1018.11 1018.19 1018.18 1018.16 1018.17 1018.07 1017.45 1017.07 1016.11 1016.57 1016.42 1015.59 1014.35 1014.66 1014.50 1014.26 1014.24 1013.79 1013.50
1022.04 1021.88 1021.71 1021.47 1021.18 1020.77 1020.36 1020.13 1019.50 1018.24 1016.90 1017.09 1016.77 1017.01 1016.96 1017.11 1017.43 1017.79 1018.25 1018.49 1018.54 1019.01 1018.95 1018.61 1018.38 1018.19 1018.28 1018.42 1018.56 1018.59 1018.11 1017.94 1017.57 1016.59 1016.52 1015.49 1013.89 1014.33 1014.27 1013.61 1013.78 1013.90 1013.94 1014.09
1021.63 1021.85 1021.75 1021.69 1021.42 1021.26 1020.39 1020.65 1020.10 1018.89 1017.46 1017.00 1017.23 1017.36 1017.51 1017.91 1018.12 1018.35 1018.55 1019.07 1019.51 1019.37 1019.16 1018.75 1018.22 1018.17 1018.16 1018.18 1018.81 1018.72 1018.61 1017.86 1017.46 1017.06 1015.84 1014.26 1013.66 1014.62 1014.77 1014.43 1013.27 1013.09 1013.45 1014.06
1021.14 1021.32 1021.53 1021.48 1021.53 1021.51 1020.87 1021.04 1021.09 1019.97 1018.62 1017.22 1017.52 1017.57 1017.93 1017.71 1018.23 1018.89 1019.28 1020.09 1020.03 1019.69 1018.98 1018.53 1017.97 1017.14 1016.96 1017.98 1018.88 1019.43 1019.02 1018.57 1017.83 1017.26 1016.35 1014.72 1014.19 1014.93 1015.13 1015.06 1014.33 1013.87 1014.24 1014.68
1020.97 1020.84 1021.03 1021.19 1021.28 1021.34 1021.15 1021.08 1021.23 1020.55 1019.26 1018.11 1018.23 1017.91 1017.95 1018.14 1018.24 1018.44 1019.31 1019.92 1020.30 1020.13 1018.98 1018.24 1017.53 1016.97 1017.31 1017.18 1017.58 1018.55 1018.72 1018.32 1017.41 1016.79 1016.14 1014.76 1014.58 1015.16 1015.48 1015.57 1015.02 1014.70 1014.89 1015.01
1020.88 1020.79 1020.40 1020.49 1020.88 1021.16 1021.18 1020.73 1021.11 1020.75 1019.77 1018.87 1018.76 1018.74 1018.56 1018.74 1018.48 1018.25 1019.23 1019.78 1019.88 1019.58 1018.74 1017.79 1016.97 1016.91 1016.90 1017.13 1016.78 1017.26 1017.12 1017.08 1017.01 1016.68 1015.98 1015.01 1014.72 1015.59 1015.63 1015.14 1015.03 1015.25 1015.53 1015.91
1020.67 1020.37 1020.23 1020.12 1020.28 1020.56 1020.98 1020.91 1020.95 1020.95 1020.50 1019.62 1019.71 1019.26 1019.22 1019.12 1019.09 1018.88 1019.17 1018.93 1018.49 1018.15 1017.90 1017.54 1016.95 1016.94 1017.20 1016.74 1016.34 1017.05 1016.78 1015.89 1015.91 1015.63 1014.78 1014.53 1014.64 1014.52 1014.85 1015.30 1015.27 1015.65 1015.91 1016.40
1020.08 1019.77 1019.62 1019.59 1019.68 1020.22 1020.39 1020.39 1020.69 1020.84 1020.27 1019.38 1019.67 1019.41 1019.51 1019.66 1019.39 1019.51 1019.42 1019.12 1018.76 1018.62 1018.48 1017.72 1017.41 1016.97 1016.63 1016.55 1016.21 1016.25 1016.47 1016.29 1016.07 1015.61 1013.94 1014.56 1014.77 1015.02 1015.27 1015.46 1015.68 1016.08 1016.57 1017.22
1019.41 1018.79 1018.75 1018.79 1018.91 1019.18 1019.82 1020.25 1020.07 1020.10 1020.23 1019.81 1019.06 1019.34 1019.55 1019.68 1019.66 1019.68 1019.52 1019.49 1019.54 1019.21 1018.97 1018.40 1017.75 1017.28 1016.88 1016.33 1016.46 1016.19 1016.27 1016.44 1015.67 1014.97 1014.54 1014.80 1014.75 1014.90 1015.31 1015.98 1016.36 1016.92 1017.33 1017.76
1018.27 1017.65 1017.53 1017.87 1018.02 1018.41 1019.19 1019.77 1019.79 1019.62 1019.82 1019.50 1019.07 1019.18 1019.13 1019.32 1019.42 1019.44 1019.60 1019.53 1019.51 1019.40 1019.32 1018.59 1017.93 1017.56 1017.54 1016.94 1016.97 1015.79 1015.71 1015.04 1015.01 1013.85 1014.16 1014.35 1014.68 1014.93 1015.61 1016.12 1016.80 1017.25 1017.79 1018.31
1017.67 1016.48 1016.18 1016.81 1017.49 1018.18 1019.34 1019.55 1018.85 1018.98 1019.48 1019.58 1019.33 1019.19 1019.23 1019.43 1019.51 1019.62 1019.69 1019.80 1019.81 1019.38 1018.79 1018.49 1017.74 1017.71 1017.88 1016.65 1015.36 1014.25 1013.99 1014.34 1014.44 1014.39 1014.94 1015.28 1015.62 1015.92 1016.27 1016.63 1017.25 1017.77 1018.13 1018.44
1017.15 1015.77 1015.40 1015.95 1016.40 1017.80 1018.38 1018.22 1017.76 1018.11 1018.97 1019.80 1019.53 1018.83 1019.43 1019.52 1019.66 1019.86 1019.93 1020.10 1019.87 1019.66 1019.21 1018.59 1018.21 1018.00 1017.76 1016.27 1014.39 1014.05 1014.11 1014.33 1014.66 1015.17 1015.62 1015.93 1016.16 1016.16 1016.81 1017.22 1017.67 1018.12 1018.55 1019.02
1017.23 1015.73 1015.22 1015.59 1016.49 1017.50 1017.99 1017.82 1018.02 1018.05 1019.08 1019.50 1019.03 1018.64 1019.21 1019.51 1019.11 1019.43 1019.69 1019.87 1020.02 1019.72 1019.05 1018.94 1018.40 1018.20 1017.59 1015.44 1014.03 1013.86 1014.20 1014.74 1015.09 1015.37 1015.73 1016.04 1016.05 1016.74 1017.28 1017.71 1018.13 1018.54 1018.95 1019.33
1017.80 1017.43 1017.18 1017.00 1017.23 1017.45 1017.33 1017.62 1018.34 1018.48 1018.90 1018.62 1018.33 1017.89 1018.02 1019.19 1018.96 1019.08 1019.58 1019.62 1019.65 1019.62 1018.86 1018.41 1018.28 1016.95 1015.73 1014.43 1014.17 1014.10 1014.64 1014.95 1015.20 1015.82 1016.18 1016.46 1016.70 1017.12 1017.59 1017.96 1018.43 1018.83 1019.19 1019.47
1017.95 1018.20 1017.84 1017.48 1017.41 1017.28 1017.63 1018.19 1018.70 1019.01 1018.70 1018.53 1017.68 1017.51 1018.11 1018.62 1018.64 1018.82 1019.07 1019.16 1019.04 1018.89 1018.28 1018.32 1017.60 1015.40 1014.60 1014.39 1014.52 1014.51 1014.70 1015.16 1015.62 1015.97 1016.43 1016.66 1017.04 1017.48 1017.91 1018.23 1018.68 1019.04 1019.22 1019.49
1018.68 1018.47 1018.03 1017.91 1017.65 1017.52 1017.74 1017.66 1017.51 1018.05 1018.25 1017.98 1017.17 1017.35 1017.87 1018.78 1018.56 1018.43 1018.69 1018.35 1018.51 1018.35 1018.29 1018.13 1016.66 1015.03 1014.47 1014.76 1014.75 1014.95 1014.91 1015.29 1015.77 1015.96 1016.12 1016.66 1016.97 1017.47 1018.00 1018.30 1018.71 1019.06 1019.32 1019.53
1018.70 1018.60 1018.51 1018.17 1018.00 1017.73 1017.61 1017.08 1017.40 1017.12 1016.93 1017.44 1017.46 1017.76 1017.78 1018.48 1018.62 1018.15 1018.54 1018.25 1018.42 1018.09 1018.29 1018.01 1016.25 1015.00 1014.96 1015.18 1015.31 1015.42 1015.45 1015.74 1016.16 1016.58 1016.78 1017.17 1017.56 1017.89 1018.26 1018.56 1018.75 1018.95 1019.16 1019.27
1019.03 1018.73 1018.33 1018.05 1018.35 1018.11 1017.35 1016.82 1017.03 1017.16 1017.13 1017.58 1017.75 1017.84 1018.01 1018.58 1018.56 1018.17 1018.12 1018.03 1018.16 1018.39 1018.11 1016.83 1015.48 1015.06 1015.21 1015.59 1015.97 1016.01 1016.22 1016.46 1016.67 1016.97 1017.20 1017.49 1017.76 1018.07 1018.31 1018.54 1018.67 1018.80 1018.80 1018.79
1018.73 1018.54 1018.50 1018.31 1018.03 1017.83 1017.26 1017.34 1017.37 1017.86 1017.71 1017.81 1017.81 1017.87 1017.83 1018.41 1018.45 1018.11 1018.18 1017.90 1017.94 1017.68 1017.09 1015.90 1014.91 1014.89 1015.18 1015.78 1016.29 1016.44 1016.63 1016.78 1016.98 1017.31 1017.65 1017.83 1017.97 1018.12 1018.17 1018.22 1018.32 1018.30 1018.28 1018.27
1018.71 1018.96 1018.47 1018.25 1017.90 1018.25 1017.99 1018.31 1018.13 1018.60 1018.19 1018.21 1018.34 1018.24 1018.23 1018.40 1018.28 1018.10 1017.96 1017.96 1016.97 1016.08 1015.47 1014.99 1015.22 1015.62 1015.55 1015.80 1016.21 1016.55 1016.84 1017.16 1017.31 1017.38 1017.53 1017.58 1017.63 1017.87 1017.90 1017.83 1017.90 1017.93 1017.83 1017.81
1018.72 1018.73 1018.51 1018.44 1018.26 1017.99 1018.18 1018.45 1018.30 1018.52 1018.77 1019.01 1018.71 1018.35 1018.32 1018.14 1017.89 1017.78 1017.38 1017.15 1016.10 1015.13 1015.15 1015.22 1015.61 1015.89 1015.98 1015.79 1016.21 1016.48 1016.82 1017.04 1017.17 1017.35 1017.41 1017.41 1017.38 1017.38 1017.34 1017.32 1017.35 1017.29 1017.22 1017.05
1018.83 1018.47 1018.27 1018.11 1018.18 1018.09 1018.19 1018.26 1018.20 1018.60 1018.92 1018.74 1018.87 1018.63 1018.28 1018.46 1017.81 1017.45 1016.99 1016.28 1015.57 1015.54 1015.43 1015.42 1015.66 1015.72 1015.77 1015.84 1016.09 1016.43 1016.64 1016.75 1016.95 1017.06 1017.05 1016.89 1016.72 1016.72 1016.79 1016.60 1016.29 1016.34 1016.15 1015.98
Thickness
5585 5588 5590 5593 5598 5604 5606 5614 5612 5604 5603 5607 5603 5594 5584 5567 5571 5568 5569 5569 5569 5571 5570 5573 5565 5567 5565 5558 5558 5569 5564 5578 5569 5578 5571 5572 5580 5595 5604 5604 5605 5604 5608 5620
5581 5583 5586 5590 5592 5595 5602 5616 5617 5606 5603 5606 5597 5581 5580 5575 5574 5570 5571 5571 5568 5567 5570 5569 5571 5565 5561 5560 5564 5569 5571 5581 5571 5571 5570 5571 5579 5589 5593 5595 5593 5603 5606 5619
5575 5579 5581 5585 5589 5590 5593 5607 5609 5613 5606 5599 5605 5594 5586 5579 5570 5572 5568 5569 5567 5568 5570 5568 5570 5563 5561 5561 5566 5555 5565 5580 5580 5585 5585 5591 5579 5583 5585 5587 5590 5610 5600 5607
5568 5571 5574 5578 5583 5586 5588 5598 5598 5590 5609 5601 5597 5594 5590 5585 5578 5574 5572 5573 5570 5570 5572 5571 5572 5560 5561 5560 5558 5567 5571 5573 5576 5583 5579 5576 5581 5586 5581 5571 5596 5602 5616 5609
5558 5562 5565 5570 5576 5581 5587 5590 5590 5585 5591 5587 5597 5586 5586 5587 5579 5579 5576 5575 5579 5574 5573 5573 5574 5571 5565 5568 5558 5564 5567 5578 5569 5567 5571 5571 5572 5580 5583 5585 5584 5590 5597 5599
5548 5551 5555 5559 5565 5572 5579 5571 5572 5576 5575 5585 5589 5599 5592 5585 5581 5572 5576 5576 5575 5570 5574 5568 5566 5563 5562 5563 5564 5563 5561 5566 5567 5579 5564 5567 5579 5594 5587 5589 5592 5586 5583 5592
5537 5541 5545 5547 5550 5554 5555 5557 5564 5576 5589 5578 5584 5575 5578 5577 5576 5575 5569 5565 5566 5557 5554 5557 5558 5559 5558 5557 5554 5553 5560 5559 5560 5569 5565 5572 5598 5585 5583 5594 5591 5586 5583 5582
5527 5527 5531 5534 5537 5539 5546 5543 5550 5563 5576 5577 5569 5567 5567 5563 5562 5564 5563 5557 5549 5549 5550 5553 5556 5554 5553 5554 5544 5548 5547 5559 5557 5553 5568 5590 5595 5574 5572 5573 5590 5588 5582 5576
5519 5520 5520 5523 5524 5525 5530 5530 5530 5542 5555 5570 5562 5561 5558 5563 5558 5548 5545 5535 5537 5540 5549 5550 5552 5560 5569 5551 5535 5528 5533 5539 5546 5544 5546 5564 5578 5565 5562 5561 5569 5572 5568 5562
5505 5508 5509 5510 5512 5514 5515 5518 5517 5525 5539 5550 5547 5554 5553 5551 5551 5553 5537 5529 5525 5527 5541 5545 5548 5556 5547 5554 5551 5529 5528 5534 5540 5545 5542 5562 5564 5555 5551 5553 5563 5554 5552 5552
5490 5492 5499 5501 5500 5499 5500 5508 5503 5510 5523 5532 5528 5531 5535 5532 5539 5545 5530 5526 5519 5520 5533 5541 5549 5544 5548 5541 5549 5539 5541 5537 5534 5537 5538 5538 5553 5540 5543 5547 5545 5542 5539 5535
5474 5481 5483 5486 5487 5488 5487 5491 5489 5490 5497 5512 5505 5511 5513 5516 5517 5526 5518 5523 5524 5530 5533 5534 5538 5533 5524 5539 5546 5527 5531 5546 5544 5543 5548 5545 5543 5544 5541 5534 5534 5529 5526 5521
5462 5468 5472 5474 5475 5472 5475 5478 5475 5475 5483 5497 5492 5501 5495 5495 5498 5497 5510 5507 5511 5507 5508 5521 5522 5524 5530 5528 5530 5533 5521 5524 5524 5523 5547 5534 5531 5528 5525 5522 5520 5515 5510 5501
5451 5459 5461 5463 5464 5464 5461 5460 5462 5465 5466 5476 5492 5477 5479 5477 5479 5480 5483 5484 5482 5487 5490 5498 5505 5507 5514 5525 5515 5520 5517 5506 5515 5522 5527 5520 5520 5518 5515 5504 5499 5491 5485 5481
5450 5457 5459 5459 5459 5457 5453 5451 5452 5452 5456 5467 5475 5465 5467 5467 5468 5470 5469 5471 5472 5474 5474 5481 5487 5494 5487 5494 5485 5504 5505 5513 5508 5523 5520 5519 5513 5508 5498 5492 5482 5477 5468 5459
5437 5453 5459 5456 5451 5447 5440 5439 5449 5448 5443 5444 5455 5454 5452 5451 5454 5455 5455 5455 5455 5461 5469 5475 5481 5474 5476 5488 5498 5517 5519 5508 5501 5506 5492 5489 5483 5479 5475 5472 5463 5455 5451 5447
5425 5440 5446 5446 5446 5438 5435 5441 5449 5443 5436 5427 5435 5450 5441 5441 5440 5440 5439 5437 5442 5444 5451 5454 5461 5461 5457 5475 5493 5506 5500 5493 5485 5477 5470 5466 5462 5463 5454 5449 5442 5436 5431 5425
5406 5422 5428 5428 5427 5423 5422 5427 5428 5431 5423 5415 5425 5441 5435 5431 5437 5434 5428 5428 5424 5427 5437 5434 5440 5442 5446 5463 5489 5490 5481 5469 5462 5458 5455 5449 5450 5441 5434 5427 5421 5415 5411 5405
5379 5387 5393 5396 5398 5404 5412 5411 5407 5410 5408 5412 5416 5436 5445 5418 5424 5422 5413 5415 5414 5410 5419 5427 5428 5444 5444 5466 5467 5464 5452 5447 5446 5436 5432 5428 5425 5418 5412 5407 5400 5396 5391 5386
5354 5360 5367 5373 5379 5385 5386 5382 5381 5381 5387 5387 5409 5420 5414 5411 5412 5408 5407 5399 5406 5405 5413 5407 5412 5441 5453 5450 5442 5440 5437 5430 5423 5416 5410 5407 5401 5397 5391 5387 5381 5376 5373 5368
5330 5337 5348 5352 5359 5365 5364 5369 5374 5375 5380 5385 5399 5402 5394 5384 5395 5397 5387 5391 5389 5395 5394 5391 5410 5428 5435 5422 5421 5417 5417 5412 5406 5404 5400 5393 5388 5381 5374 5368 5363 5358 5353 5349
5312 5321 5326 5334 5337 5345 5352 5358 5356 5365 5378 5374 5380 5377 5376 5369 5369 5378 5368 5376 5367 5379 5372 5372 5393 5417 5405 5398 5396 5393 5393 5389 5383 5380 5375 5370 5364 5359 5354 5349 5346 5343 5339 5336
5293 5306 5316 5321 5321 5333 5341 5344 5351 5356 5354 5356 5357 5360 5357 5352 5354 5356 5358 5358 5357 5350 5351 5366 5390 5392 5382 5377 5374 5373 5369 5366 5363 5359 5356 5352 5347 5343 5339 5334 5332 5329 5327 5325
5286 5297 5303 5308 5312 5320 5334 5339 5341 5327 5334 5338 5344 5342 5348 5343 5341 5343 5343 5345 5340 5341 5349 5363 5381 5375 5372 5363 5356 5356 5352 5350 5346 5341 5336 5332 5330 5328 5326 5323 5322 5321 5319 5316
5279 5280 5295 5288 5301 5300 5307 5306 5312 5309 5317 5324 5325 5326 5332 5330 5329 5331 5331 5324 5335 5349 5358 5366 5361 5350 5345 5347 5344 5340 5335 5333 5329 5327 5323 5322 5320 5318 5316 5315 5313 5310 5308 5306
5264 5267 5279 5280 5287 5294 5293 5294 5301 5300 5302 5303 5309 5312 5315 5319 5318 5318 5321 5322 5332 5348 5345 5345 5339 5330 5326 5334 5330 5326 5320 5314 5313 5312 5311 5310 5310 5308 5308 5307 5303 5300 5297 5296
5259 5271 5271 5280 5279 5287 5289 5292 5296 5292 5291 5299 5297 5298 5306 5289 5300 5303 5313 5319 5332 5327 5328 5326 5324 5326 5325 5321 5319 5316 5314 5312 5308 5306 5306 5306 5305 5302 5298 5297 5299 5293 5291 5290